Weather History for Two Harbors, MN

Change the Weather History Date:

Friday, November 9, 2012

  Actual Average Record
Temperature  
Mean Temperature 36 °F -  
Max Temperature 39 °F 42 °F 71 °F (1999)
Min Temperature 33 °F 29 °F 9 °F (1957)
Degree Days  
Heating Degree Days 29    
Moisture  
Dew Point 29 °F    
Average Humidity 76    
Maximum Humidity 87    
Minimum Humidity 70    
Precipitation  
Precipitation 0.00 in - - ()
Sea Level Pressure  
Sea Level Pressure 30.11 in    
Wind  
Wind Speed 8 mph (NE)    
Max Wind Speed 22 mph    
Max Gust Speed 31 mph    
Visibility 9 miles    
Events      
Averages and records for this station are not official NWS values.
T = Trace of Precipitation, MM = Missing Value Source: NWS Daily Summary

Daily Weather History Graph

Daily Weather History Graph

Search for Another Location

Airport:

Trip Planner

Search our weather history database for the weather conditions in past years. The results will help you decide how hot, cold, wet, or windy it might be!

Date:

Astronomy

Nov. 09, 2012 Rise Set
Actual Time 7:02 AM CST 4:38 PM CST
Civil Twilight 6:29 AM CST 5:11 PM CST
Nautical Twilight 5:53 AM CST 5:47 PM CST
Astronomical Twilight 5:17 AM CST 6:23 PM CST
Moon 1:43 AM CST (11/9) 2:07 PM CST (11/9)
Length of Visible Light 10h 41m
Length of Day
9h 36m
Waning Crescent, 23% of the Moon is Illuminated
Nov 9
Waning Crescent
Nov 13
New
Nov 20
First Quarter
Nov 28
Full
Dec 6
Last Quarter

Hourly Weather History & Observations

Time (CST) Temp. Windchill Dew Point Humidity Pressure Visibility Wind Dir Wind Speed Gust Speed Precip Events Conditions
12:11 AM 39.2 °F 35.9 °F 33.8 °F 81% 30.04 in 10.0 mi North 4.6 mph - N/A   Overcast
12:31 AM 39.2 °F 35.0 °F 33.8 °F 81% 30.05 in 10.0 mi North 5.8 mph - N/A   Overcast
12:51 AM 39.2 °F 37.0 °F 32.0 °F 75% 30.05 in 10.0 mi North 3.5 mph - N/A   Overcast
1:11 AM 39.2 °F 35.0 °F 32.0 °F 75% 30.05 in 10.0 mi North 5.8 mph - N/A   Overcast
1:31 AM 39.2 °F 33.0 °F 32.0 °F 75% 30.05 in 10.0 mi North 9.2 mph - N/A   Overcast
1:52 AM 39.2 °F 33.6 °F 30.2 °F 70% 30.06 in 10.0 mi North 8.1 mph - N/A   Overcast
2:11 AM 37.4 °F 33.8 °F 30.2 °F 75% 30.07 in 10.0 mi NNE 4.6 mph - N/A   Overcast
2:31 AM 37.4 °F 34.9 °F 30.2 °F 75% 30.07 in 10.0 mi NNE 3.5 mph - N/A   Overcast
2:52 AM 37.4 °F 32.1 °F 30.2 °F 75% 30.07 in 10.0 mi NNE 6.9 mph - N/A   Overcast
3:11 AM 37.4 °F 32.1 °F 30.2 °F 75% 30.08 in 10.0 mi NNE 6.9 mph - N/A   Overcast
3:31 AM 37.4 °F 32.8 °F 30.2 °F 75% 30.09 in 10.0 mi NNE 5.8 mph - N/A   Overcast
3:52 AM 37.4 °F 32.8 °F 28.4 °F 70% 30.09 in 10.0 mi NNE 5.8 mph - N/A   Overcast
4:11 AM 37.4 °F 32.8 °F 28.4 °F 70% 30.08 in 10.0 mi NNE 5.8 mph - N/A   Overcast
4:31 AM 37.4 °F 32.8 °F 28.4 °F 70% 30.09 in 10.0 mi NNE 5.8 mph - N/A   Overcast
4:52 AM 37.4 °F 32.8 °F 28.4 °F 70% 30.10 in 10.0 mi NNE 5.8 mph - N/A   Overcast
5:11 AM 35.6 °F - 28.4 °F 75% 30.11 in 10.0 mi Calm Calm - N/A   Overcast
5:31 AM 35.6 °F - 28.4 °F 75% 30.11 in 10.0 mi Calm Calm - N/A   Overcast
6:11 AM 35.6 °F 29.9 °F 26.6 °F 70% 30.11 in 10.0 mi NNE 6.9 mph - N/A   Overcast
6:31 AM 35.6 °F 30.7 °F 26.6 °F 70% 30.11 in 10.0 mi NNE 5.8 mph - N/A   Overcast
6:52 AM 35.6 °F 30.7 °F 26.6 °F 70% 30.12 in 10.0 mi NNE 5.8 mph - N/A   Overcast
7:11 AM 35.6 °F 32.8 °F 26.6 °F 70% 30.13 in 10.0 mi North 3.5 mph - N/A   Overcast
7:31 AM 35.6 °F 32.8 °F 26.6 °F 70% 30.13 in 10.0 mi NNE 3.5 mph - N/A   Overcast
7:51 AM 35.6 °F 30.7 °F 26.6 °F 70% 30.13 in 10.0 mi NNE 5.8 mph - N/A   Overcast
8:11 AM 35.6 °F 29.2 °F 26.6 °F 70% 30.13 in 10.0 mi NE 8.1 mph - N/A   Overcast
8:31 AM 35.6 °F 30.7 °F 26.6 °F 70% 30.14 in 10.0 mi NE 5.8 mph - N/A   Overcast
8:51 AM 35.6 °F 28.0 °F 26.6 °F 70% 30.13 in 10.0 mi NE 10.4 mph - N/A   Overcast
9:11 AM 35.6 °F 29.9 °F 26.6 °F 70% 30.14 in 10.0 mi NE 6.9 mph - N/A   Overcast
9:31 AM 35.6 °F 28.6 °F 26.6 °F 70% 30.14 in 10.0 mi NE 9.2 mph - N/A   Overcast
9:51 AM 35.6 °F 29.2 °F 26.6 °F 70% 30.14 in 10.0 mi NE 8.1 mph - N/A   Overcast
10:11 AM 35.6 °F 31.7 °F 26.6 °F 70% 30.14 in 10.0 mi NE 4.6 mph - N/A   Overcast
10:31 AM 35.6 °F 28.0 °F 28.4 °F 75% 30.15 in 10.0 mi ENE 10.4 mph - N/A   Overcast
10:51 AM 35.6 °F 28.0 °F 28.4 °F 75% 30.14 in 10.0 mi ENE 10.4 mph - N/A   Overcast
11:11 AM 35.6 °F 27.1 °F 28.4 °F 75% 30.13 in 10.0 mi ENE 12.7 mph 16.1 mph N/A   Overcast
11:31 AM 35.6 °F 28.0 °F 28.4 °F 75% 30.13 in 10.0 mi NE 10.4 mph - N/A   Overcast
11:51 AM 35.6 °F 28.6 °F 28.4 °F 75% 30.13 in 10.0 mi NE 9.2 mph - N/A   Overcast
12:11 PM 35.6 °F 28.0 °F 28.4 °F 75% 30.13 in 10.0 mi NE 10.4 mph - N/A   Overcast
12:31 PM 35.6 °F 28.6 °F 28.4 °F 75% 30.13 in 10.0 mi ENE 9.2 mph - N/A   Overcast
12:51 PM 35.6 °F 28.6 °F 28.4 °F 75% 30.13 in 7.0 mi NE 9.2 mph - N/A   Overcast
1:11 PM 35.6 °F 28.0 °F 30.2 °F 81% 30.13 in 3.0 mi NE 10.4 mph - N/A   Haze
1:31 PM 33.8 °F 25.8 °F 30.2 °F 87% 30.13 in 2.5 mi NE 10.4 mph - N/A   Overcast
1:51 PM 33.8 °F 26.4 °F 28.4 °F 81% 30.12 in 3.0 mi NE 9.2 mph - N/A   Haze
2:11 PM 33.8 °F 26.4 °F 30.2 °F 87% 30.11 in 3.0 mi NE 9.2 mph 16.1 mph N/A   Overcast
2:31 PM 33.8 °F 26.4 °F 28.4 °F 81% 30.12 in 3.0 mi ENE 9.2 mph 17.3 mph N/A   Haze
2:51 PM 33.8 °F 26.4 °F 28.4 °F 81% 30.11 in 3.0 mi NE 9.2 mph - N/A   Haze
3:11 PM 33.8 °F 26.4 °F 28.4 °F 81% 30.11 in 5.0 mi ENE 9.2 mph 16.1 mph N/A   Haze
3:31 PM 33.8 °F 25.3 °F 28.4 °F 81% 30.11 in 10.0 mi ENE 11.5 mph 16.1 mph N/A   Overcast
3:51 PM 33.8 °F 26.4 °F 28.4 °F 81% 30.11 in 10.0 mi NE 9.2 mph 17.3 mph N/A   Overcast
4:11 PM 35.6 °F 26.6 °F 28.4 °F 75% 30.11 in 10.0 mi ENE 13.8 mph 17.3 mph N/A   Overcast
4:32 PM 35.6 °F 27.5 °F 30.2 °F 81% 30.11 in 10.0 mi ENE 11.5 mph 18.4 mph N/A   Overcast
4:51 PM 35.6 °F 27.1 °F 30.2 °F 81% 30.12 in 10.0 mi ENE 12.7 mph 16.1 mph N/A   Overcast
5:11 PM 35.6 °F 27.1 °F 30.2 °F 81% 30.11 in 10.0 mi ENE 12.7 mph 24.2 mph N/A   Overcast
5:32 PM 35.6 °F 27.1 °F 30.2 °F 81% 30.12 in 10.0 mi ENE 12.7 mph 18.4 mph N/A   Overcast
5:51 PM 35.6 °F 29.2 °F 28.4 °F 75% 30.12 in 10.0 mi ENE 8.1 mph 18.4 mph N/A   Overcast
6:11 PM 35.6 °F 27.1 °F 28.4 °F 75% 30.11 in 10.0 mi ENE 12.7 mph 20.7 mph N/A   Overcast
6:32 PM 35.6 °F 27.1 °F 28.4 °F 75% 30.12 in 10.0 mi ENE 12.7 mph 18.4 mph N/A   Overcast
6:51 PM 35.6 °F 25.9 °F 28.4 °F 75% 30.13 in 10.0 mi ENE 16.1 mph 23.0 mph N/A   Overcast
7:11 PM 35.6 °F 27.1 °F 28.4 °F 75% 30.12 in 10.0 mi ENE 12.7 mph 27.6 mph N/A   Overcast
7:31 PM 33.8 °F 23.5 °F 28.4 °F 81% 30.13 in 10.0 mi ENE 16.1 mph 23.0 mph N/A   Overcast
7:51 PM 33.8 °F 23.2 °F 28.4 °F 81% 30.13 in 10.0 mi ENE 17.3 mph 25.3 mph N/A   Overcast
8:11 PM 33.8 °F 24.8 °F 28.4 °F 81% 30.12 in 10.0 mi ENE 12.7 mph 18.4 mph N/A   Overcast
8:31 PM 33.8 °F 23.2 °F 28.4 °F 81% 30.12 in 10.0 mi ENE 17.3 mph 23.0 mph N/A   Overcast
8:51 PM 33.8 °F 23.5 °F 28.4 °F 81% 30.11 in 10.0 mi East 16.1 mph 27.6 mph N/A   Overcast
9:12 PM 33.8 °F 23.2 °F 26.6 °F 75% 30.12 in 10.0 mi ENE 17.3 mph 24.2 mph N/A   Overcast
9:31 PM 33.8 °F 23.2 °F 28.4 °F 81% 30.12 in 10.0 mi ENE 17.3 mph 25.3 mph N/A   Overcast
9:51 PM 33.8 °F 22.2 °F 28.4 °F 81% 30.13 in 10.0 mi East 20.7 mph - N/A   Overcast
10:11 PM 33.8 °F 22.8 °F 28.4 °F 81% 30.12 in 10.0 mi ENE 18.4 mph 24.2 mph N/A   Overcast
10:31 PM 33.8 °F 22.5 °F 28.4 °F 81% 30.11 in 10.0 mi ENE 19.6 mph 31.1 mph N/A   Overcast
10:52 PM 33.8 °F 21.9 °F 28.4 °F 81% 30.11 in 10.0 mi ENE 21.9 mph 27.6 mph N/A   Overcast
11:11 PM 33.8 °F 22.2 °F 28.4 °F 81% 30.11 in 10.0 mi East 20.7 mph 31.1 mph N/A   Overcast
11:31 PM 33.8 °F 22.5 °F 28.4 °F 81% 30.10 in 10.0 mi ENE 19.6 mph 26.5 mph N/A   Overcast
11:52 PM 33.8 °F 22.5 °F 28.4 °F 81% 30.10 in 10.0 mi ENE 19.6 mph 28.8 mph N/A   Overcast